"startDT [UTC]","vpos","CH4 [ppm]","stdev(CH4) [ppm]","CO2 [ppm]","stdev(CO2) [ppm]","H2O_reported [%]","stdev(H2O_reported)","CavityPressure [torr]","CavityTemp [C]","OutletValve","CH4_dry [ppm]","CO2_dry [ppm]","DasTemp [C]","EtalonTemp [C]","WarmBoxTemp [C]","MPVPosition","T_ECpre [C]","T_EC1 [C]","T_EC2 [C]","p_inlet [hPa]","p_in [hPa]","p_out [hPa]","T_inlet [C]","RH_inlet [%]","dwpt_inlet [C]","T_vent [C]","RH_vent [%]","dwpt_vent [C]","flow_vent [l min-1]","flow_inlet [l min-1]","dwpt_sample [C]","T_room [C]"
2015-11-04 00:00:00,0.0,1.94796,0.00092,406.982,0.069,0.1442,0.0027,139.999,45.000,31723.14365,1.95079,407.692,35.300,45.069,44.999,0.00,0.09,-272.75,-272.80,-7,524,-941,20.9,4.5,-21.3,21.1,4.6,-21.1,5.73,1.89,-11.5,27.3
2015-11-04 00:01:00,0.0,1.94591,0.00059,406.865,0.044,0.1434,0.0023,139.997,45.000,31719.52557,1.94866,407.569,35.301,45.068,45.000,0.00,0.09,-272.75,-272.80,-6,524,-940,20.9,4.5,-21.4,21.1,4.6,-21.0,5.73,2.14,-11.5,27.2
2015-11-04 00:02:00,0.0,1.94706,0.00072,406.918,0.046,0.1444,0.0033,139.999,45.000,31718.57829,1.94981,407.628,35.281,45.068,44.999,0.00,0.09,-272.75,-272.81,-7,524,-940,20.9,4.5,-21.4,21.1,4.6,-21.0,5.73,1.81,-11.5,27.3
2015-11-04 00:03:00,0.0,1.94559,0.00092,406.828,0.065,0.1448,0.0029,139.999,45.000,31718.13300,1.94848,407.540,35.306,45.068,45.000,0.00,0.09,-272.75,-272.80,-8,524,-940,20.9,4.5,-21.3,21.1,4.6,-21.1,5.73,1.89,-11.5,27.3
2015-11-04 00:04:00,0.0,1.94695,0.00131,406.920,0.100,0.1454,0.0023,140.000,45.000,31719.65460,1.94959,407.629,35.310,45.068,45.000,0.00,0.09,-272.75,-272.80,-6,524,-940,20.9,4.6,-21.2,21.1,4.6,-21.0,5.73,2.13,-11.5,27.2
2015-11-04 00:05:00,0.0,1.94657,0.00073,406.871,0.056,0.1474,0.0023,140.000,45.000,31719.35298,1.94947,407.596,35.312,45.068,45.000,0.00,0.09,-272.75,-272.81,-6,524,-940,20.9,4.6,-21.1,21.1,4.6,-20.9,5.73,1.81,-11.5,27.2
2015-11-04 00:06:00,0.0,1.94768,0.00043,406.984,0.043,0.1487,0.0038,139.997,45.000,31717.50392,1.95051,407.712,35.312,45.068,45.000,0.00,0.09,-272.75,-272.81,-8,524,-941,20.9,4.7,-21.0,21.1,4.7,-20.8,5.73,1.89,-11.5,27.3
2015-11-04 00:07:00,0.0,1.94748,0.00039,407.016,0.050,0.1505,0.0028,139.998,45.000,31717.54020,1.95038,407.754,35.305,45.069,45.000,0.00,0.09,-272.74,-272.81,-7,524,-941,20.9,4.7,-20.9,21.1,4.7,-20.7,5.73,2.13,-11.5,27.3
2015-11-04 00:08:00,0.0,1.94757,0.00052,406.959,0.026,0.1522,0.0027,140.000,45.000,31717.27411,1.95048,407.706,35.286,45.069,45.000,0.00,0.09,-272.74,-272.81,-6,524,-940,20.9,4.7,-20.8,21.1,4.8,-20.6,5.73,1.82,-11.5,27.3
2015-11-04 00:09:00,0.0,1.94771,0.00035,406.976,0.028,0.1515,0.0030,140.000,45.000,31717.12133,1.95062,407.720,35.304,45.069,45.000,0.00,0.09,-272.76,-272.81,-7,524,-940,20.9,4.7,-20.8,21.1,4.8,-20.5,5.73,1.89,-11.5,27.3
2015-11-04 00:10:00,0.0,1.94798,0.00037,406.999,0.047,0.1523,0.0024,139.997,45.000,31715.37526,1.95091,407.747,35.296,45.069,45.000,0.00,0.09,-272.75,-272.80,-8,524,-941,20.9,4.8,-20.7,21.1,4.8,-20.5,5.73,2.14,-11.5,27.3
2015-11-04 00:11:00,0.0,1.94730,0.00050,406.914,0.044,0.1533,0.0030,140.000,45.000,31718.25263,1.95029,407.668,35.305,45.069,45.000,0.00,0.09,-272.74,-272.80,-7,524,-940,20.9,4.8,-20.7,21.1,4.8,-20.5,5.73,1.83,-11.5,27.3
2015-11-04 00:12:00,0.0,1.94650,0.00035,406.907,0.032,0.1514,0.0029,139.999,45.000,31719.92698,1.94943,407.648,35.301,45.069,45.000,0.00,0.09,-272.75,-272.80,-6,524,-941,20.9,4.8,-20.7,21.1,4.8,-20.5,5.73,1.88,-11.5,27.2
2015-11-04 00:13:00,0.0,1.94602,0.00035,406.845,0.048,0.1524,0.0030,139.999,45.000,31718.94897,1.94895,407.592,35.312,45.069,45.000,0.00,0.09,-272.75,-272.81,-7,524,-940,20.9,4.8,-20.7,21.1,4.8,-20.5,5.73,2.13,-11.5,27.2
2015-11-04 00:14:00,0.0,1.94579,0.00035,406.815,0.059,0.1534,0.0031,140.000,45.000,31717.89016,1.94872,407.569,35.308,45.069,45.000,0.00,0.09,-272.74,-272.80,-7,524,-940,20.9,4.8,-20.7,21.1,4.8,-20.5,5.73,1.83,-11.5,27.3
2015-11-04 00:15:00,0.0,1.94717,0.00086,406.931,0.059,0.1513,0.0032,140.001,45.000,31718.05451,1.95004,407.672,35.300,45.069,45.000,0.00,0.09,-272.75,-272.80,-6,524,-941,20.9,4.8,-20.8,21.1,4.8,-20.5,5.73,1.87,-11.5,27.3
2015-11-04 00:16:00,0.0,1.94719,0.00076,406.948,0.053,0.1511,0.0023,140.000,45.000,31718.26300,1.95013,407.692,35.284,45.069,45.000,0.00,0.09,-272.76,-272.81,-6,524,-940,20.9,4.8,-20.8,21.1,4.8,-20.5,5.73,2.14,-11.5,27.2
2015-11-04 00:17:00,0.0,1.94698,0.00056,406.909,0.044,0.1516,0.0024,139.998,45.000,31717.39321,1.94987,407.650,35.267,45.069,45.000,0.00,0.09,-272.74,-272.81,-7,524,-940,20.9,4.8,-20.7,21.1,4.8,-20.5,5.73,1.85,-11.5,27.2
2015-11-04 00:18:00,0.0,1.94677,0.00039,406.917,0.042,0.1537,0.0027,139.998,45.000,31718.02131,1.94973,407.671,35.269,45.069,45.000,0.00,0.09,-272.74,-272.81,-7,524,-940,20.9,4.8,-20.6,21.1,4.8,-20.4,5.73,1.84,-11.5,27.2
2015-11-04 00:19:00,0.0,1.94633,0.00026,406.905,0.042,0.1537,0.0026,140.002,45.000,31720.16092,1.94931,407.659,35.251,45.069,45.000,0.00,0.09,-272.76,-272.81,-6,524,-941,20.9,4.8,-20.6,21.1,4.9,-20.4,5.73,2.14,-11.5,27.2
2015-11-04 00:20:00,0.0,1.94738,0.00043,407.042,0.043,0.1571,0.0028,139.999,45.000,31717.37591,1.95037,407.813,35.240,45.069,45.000,0.00,0.09,-272.75,-272.82,-7,524,-941,20.9,4.9,-20.4,21.1,4.9,-20.3,5.73,1.88,-11.5,27.3
2015-11-04 00:21:00,0.0,1.94878,0.00103,407.025,0.045,0.1586,0.0032,139.998,45.000,31719.37107,1.95175,407.804,35.249,45.069,45.000,0.00,0.09,-272.75,-272.80,-8,524,-940,20.9,4.9,-20.4,21.1,4.9,-20.2,5.73,1.83,-11.5,27.3
2015-11-04 00:22:00,0.0,1.94914,0.00042,406.984,0.042,0.1577,0.0025,139.999,45.000,31720.23590,1.95218,407.758,35.239,45.069,45.000,0.00,0.09,-272.75,-272.81,-7,524,-940,20.9,4.9,-20.4,21.1,4.9,-20.2,5.73,2.13,-11.5,27.2
2015-11-04 00:23:00,0.0,1.94825,0.00039,407.030,0.035,0.1586,0.0022,140.000,45.000,31723.58348,1.95131,407.809,35.223,45.069,45.000,0.00,0.09,-272.75,-272.81,-6,524,-941,20.9,4.9,-20.3,21.1,5.0,-20.1,5.73,1.89,-11.5,27.2
2015-11-04 00:24:00,0.0,1.95273,0.00571,407.067,0.086,0.1587,0.0019,140.002,44.999,31726.77887,1.95525,407.843,35.220,45.069,45.000,0.00,0.09,-272.74,-272.80,-7,524,-941,20.9,4.9,-20.3,21.1,5.0,-20.1,5.73,1.81,-11.5,27.2
2015-11-04 00:25:00,0.0,1.96858,0.00149,407.333,0.036,0.1566,0.0020,139.997,44.998,31719.52150,1.97156,408.100,35.213,45.069,45.000,0.00,0.09,-272.75,-272.80,-8,524,-941,20.9,4.9,-20.4,21.1,5.0,-20.2,5.73,2.13,-11.5,27.2
2015-11-04 00:26:00,0.0,1.97287,0.00494,407.381,0.068,0.1571,0.0018,139.999,45.000,31713.44502,1.97561,408.151,35.236,45.069,45.000,0.00,0.09,-272.75,-272.81,-7,524,-941,20.9,4.9,-20.4,21.1,4.9,-20.2,5.73,1.92,-11.5,27.2
2015-11-04 00:27:00,0.0,1.96232,0.00698,407.224,0.117,0.1570,0.0015,139.998,45.000,31713.76738,1.96612,408.001,35.246,45.069,45.000,0.00,0.31,-271.03,-272.41,-6,524,-941,20.9,4.9,-20.5,21.1,4.9,-20.2,5.43,1.85,-17.0,27.3
2015-11-04 00:28:00,0.0,1.95504,0.00245,407.088,0.040,0.1572,0.0019,140.000,45.000,31708.22667,1.95781,407.858,35.247,45.069,45.000,0.00,0.09,-272.74,-272.79,-7,524,-941,20.9,4.9,-20.5,21.1,4.9,-20.2,5.73,2.12,-11.5,27.2
2015-11-04 00:29:00,0.0,1.97799,0.00474,407.435,0.078,0.1574,0.0014,140.000,45.000,31706.03375,1.98062,408.204,35.250,45.069,45.000,0.00,0.09,-272.75,-272.81,-7,524,-941,20.9,4.9,-20.4,21.1,4.9,-20.2,5.73,1.93,-11.5,27.3
2015-11-04 00:30:00,0.0,1.96407,0.00455,407.259,0.079,0.1576,0.0025,139.997,45.000,31703.04644,1.96761,408.038,35.251,45.069,45.000,0.00,0.09,-272.75,-272.81,-6,524,-941,20.9,4.9,-20.4,21.1,4.9,-20.2,5.73,1.79,-11.5,27.3
2015-11-04 00:31:00,0.0,1.96079,0.00105,407.215,0.032,0.1566,0.0014,140.002,45.000,31705.90402,1.96385,407.984,35.300,45.069,45.000,0.00,0.09,-272.75,-272.80,-6,524,-941,20.9,4.9,-20.5,21.1,4.9,-20.2,5.73,2.11,-11.5,27.2
2015-11-04 00:32:00,0.0,1.96657,0.00315,407.344,0.064,0.1572,0.0015,139.999,45.000,31702.88308,1.96954,408.116,35.314,45.069,45.000,0.00,0.09,-272.75,-272.81,-8,524,-941,20.9,4.9,-20.4,21.1,4.9,-20.2,5.73,1.96,-11.5,27.2
2015-11-04 00:33:00,0.0,1.95762,0.00207,407.202,0.049,0.1589,0.0014,139.999,45.000,31701.97837,1.96090,407.984,35.314,45.068,45.000,0.00,0.09,-272.75,-272.81,-7,524,-941,20.9,4.9,-20.3,21.1,5.0,-20.1,5.73,1.77,-11.5,27.3
2015-11-04 00:34:00,0.0,1.95680,0.00081,407.171,0.030,0.1612,0.0015,140.003,45.000,31702.87905,1.95984,407.962,35.317,45.068,44.999,0.00,0.09,-272.75,-272.80,-6,524,-941,20.9,5.0,-20.3,21.1,5.0,-20.0,5.73,2.09,-11.5,27.3
2015-11-04 00:35:00,0.0,1.96349,0.00269,407.252,0.048,0.1615,0.0018,139.995,45.000,31699.64730,1.96622,408.044,35.322,45.068,45.000,0.00,0.09,-272.75,-272.81,-7,524,-941,20.9,5.0,-20.2,21.1,5.0,-20.0,5.73,2.00,-11.5,27.2
2015-11-04 00:36:00,0.0,1.96277,0.00498,407.148,0.094,0.1625,0.0020,139.999,45.000,31700.39361,1.96632,407.951,35.313,45.068,45.000,0.00,0.09,-272.75,-272.81,-8,524,-941,20.9,5.0,-20.2,21.1,5.0,-20.0,5.73,1.76,-11.5,27.2
2015-11-04 00:37:00,0.0,1.95754,0.00325,407.043,0.055,0.1609,0.0014,139.999,44.999,31697.12673,1.96084,407.836,35.298,45.069,45.000,0.00,0.09,-272.75,-272.80,-7,524,-941,20.9,5.0,-20.2,21.1,5.0,-20.0,5.73,2.06,-11.5,27.2
2015-11-04 00:38:00,0.0,1.95282,0.00113,406.954,0.035,0.1592,0.0016,140.000,45.000,31698.16106,1.95595,407.735,35.297,45.069,45.000,0.00,0.09,-272.74,-272.81,-6,524,-941,20.9,4.9,-20.4,21.1,5.0,-20.1,5.73,2.04,-11.5,27.2
2015-11-04 00:39:00,0.0,1.95226,0.00054,406.903,0.029,0.1589,0.0019,139.998,45.000,31694.61846,1.95531,407.683,35.284,45.069,45.000,0.00,0.09,-272.75,-272.81,-7,524,-941,20.9,4.9,-20.4,21.1,5.0,-20.1,5.73,1.76,-11.5,27.2
2015-11-04 00:40:00,0.0,1.95342,0.00166,406.958,0.052,0.1586,0.0013,139.998,44.999,31695.36658,1.95650,407.738,35.255,45.069,45.000,0.00,0.09,-272.76,-272.81,-8,524,-941,20.9,4.9,-20.4,21.1,5.0,-20.1,5.73,2.03,-11.5,27.2
2015-11-04 00:41:00,0.0,1.95146,0.00042,406.911,0.031,0.1569,0.0018,139.999,44.999,31697.48436,1.95446,407.681,35.250,45.069,45.001,0.00,0.09,-272.74,-272.80,-7,524,-941,20.9,4.9,-20.5,21.0,4.9,-20.2,5.73,2.06,-11.5,27.2
2015-11-04 00:42:00,0.0,1.95290,0.00193,406.982,0.068,0.1562,0.0015,140.000,44.998,31700.81501,1.95588,407.749,35.250,45.069,45.000,0.00,0.09,-272.74,-272.81,-6,524,-941,20.9,4.8,-20.5,21.0,4.9,-20.3,5.73,1.76,-11.5,27.2
2015-11-04 00:43:00,0.0,1.95174,0.00058,406.914,0.031,0.1560,0.0017,139.998,44.998,31697.45547,1.95478,407.679,35.264,45.069,45.000,0.00,0.09,-272.76,-272.80,-7,524,-941,20.9,4.8,-20.5,21.0,4.9,-20.3,5.73,2.00,-11.5,27.2
2015-11-04 00:44:00,0.0,1.95591,0.00305,407.052,0.071,0.1566,0.0018,139.999,44.998,31696.04954,1.95863,407.818,35.251,45.069,45.000,0.00,0.09,-272.75,-272.81,-8,524,-941,20.8,4.9,-20.5,21.0,4.9,-20.3,5.73,2.09,-11.5,27.2
2015-11-04 00:45:00,0.0,1.95981,0.00163,407.159,0.046,0.1585,0.0014,139.999,44.998,31694.03889,1.96299,407.939,35.250,45.069,45.000,0.00,0.09,-272.74,-272.80,-6,524,-941,20.9,4.9,-20.4,21.0,4.9,-20.2,5.73,1.77,-11.5,27.2
2015-11-04 00:46:00,0.0,1.95896,0.00119,407.141,0.037,0.1586,0.0016,140.000,44.999,31693.68971,1.96190,407.918,35.249,45.069,45.000,0.00,0.09,-272.75,-272.81,-6,524,-941,20.8,4.9,-20.4,21.0,5.0,-20.2,5.73,1.97,-11.5,27.2
2015-11-04 00:47:00,0.0,1.95708,0.00227,407.110,0.064,0.1578,0.0019,139.996,44.999,31690.57617,1.96035,407.887,35.250,45.069,45.000,0.00,0.09,-272.75,-272.81,-7,524,-941,20.9,4.9,-20.4,21.0,5.0,-20.2,5.73,2.11,-11.5,27.3
2015-11-04 00:48:00,0.0,1.95299,0.00054,406.977,0.036,0.1591,0.0016,140.000,44.999,31691.47979,1.95607,407.758,35.255,45.069,45.000,0.00,0.09,-272.75,-272.81,-7,524,-941,20.9,4.9,-20.3,21.0,5.0,-20.1,5.73,1.79,-11.5,27.2
2015-11-04 00:49:00,0.0,1.96054,0.00452,407.134,0.081,0.1586,0.0017,139.997,44.999,31689.79410,1.96316,407.910,35.259,45.069,45.000,0.00,0.09,-272.76,-272.81,-6,524,-941,20.9,4.9,-20.3,21.0,5.0,-20.1,5.73,1.92,-11.5,27.2
2015-11-04 00:50:00,0.0,1.96415,0.00169,407.140,0.046,0.1579,0.0019,140.001,44.999,31689.32753,1.96738,407.918,35.255,45.069,45.000,0.00,0.09,-272.76,-272.81,-6,524,-941,20.9,4.9,-20.4,21.0,5.0,-20.2,5.73,2.13,-11.5,27.2
2015-11-04 00:51:00,0.0,1.96077,0.00151,407.056,0.041,0.1577,0.0017,139.998,44.999,31686.91540,1.96394,407.832,35.259,45.069,45.000,0.00,0.09,-272.75,-272.81,-7,524,-941,20.9,4.9,-20.4,21.0,5.0,-20.2,5.73,1.82,-11.5,27.2
2015-11-04 00:52:00,0.0,1.95902,0.00050,407.047,0.041,0.1550,0.0017,140.001,44.999,31685.76245,1.96202,407.806,35.278,45.069,45.000,0.00,0.09,-272.75,-272.80,-7,524,-941,20.9,4.8,-20.6,21.0,4.9,-20.3,5.73,1.88,-11.5,27.2
2015-11-04 00:53:00,0.0,1.95895,0.00070,407.171,0.070,0.1529,0.0023,140.000,44.999,31685.40506,1.96189,407.920,35.309,45.069,45.000,0.00,0.09,-272.76,-272.81,-6,524,-941,20.9,4.8,-20.7,21.0,4.8,-20.4,5.73,2.14,-11.5,27.2
2015-11-04 00:54:00,0.0,1.96008,0.00045,407.412,0.111,0.1507,0.0012,139.998,44.999,31685.83348,1.96295,408.147,35.313,45.068,45.000,0.00,0.09,-272.74,-272.81,-7,523,-941,20.9,4.7,-20.9,21.0,4.8,-20.6,5.73,1.85,-11.5,27.2
2015-11-04 00:55:00,0.0,1.96092,0.00066,407.571,0.040,0.1500,0.0015,139.998,44.999,31686.72423,1.96377,408.308,35.313,45.068,44.999,0.00,0.09,-272.74,-272.80,-8,524,-941,20.9,4.7,-21.0,21.0,4.8,-20.6,5.73,1.85,-11.5,27.2
2015-11-04 00:56:00,0.0,1.96386,0.00093,407.779,0.090,0.1507,0.0016,139.999,44.999,31684.48311,1.96672,408.517,35.314,45.068,45.000,0.00,0.09,-272.75,-272.81,-7,524,-941,20.9,4.7,-21.0,21.0,4.7,-20.7,5.73,2.14,-11.5,27.3
2015-11-04 00:57:00,0.0,1.96307,0.00101,407.745,0.084,0.1496,0.0013,140.001,45.000,31683.30851,1.96604,408.484,35.312,45.068,45.000,0.00,0.09,-272.74,-272.81,-6,524,-941,20.9,4.7,-21.0,21.0,4.7,-20.7,5.73,1.88,-11.5,27.2
2015-11-04 00:58:00,0.0,1.96089,0.00054,407.589,0.043,0.1502,0.0018,140.002,45.000,31684.30890,1.96384,408.329,35.311,45.068,45.000,0.00,0.09,-272.74,-272.80,-7,524,-941,20.9,4.7,-21.0,21.0,4.7,-20.7,5.73,1.82,-11.5,27.2
2015-11-04 00:59:00,0.0,1.96148,0.00037,407.616,0.035,0.1506,0.0015,139.999,45.000,31683.32294,1.96440,408.356,35.313,45.069,45.000,0.00,0.09,-272.75,-272.81,-8,524,-941,20.9,4.7,-20.9,21.0,4.7,-20.7,5.73,2.13,-11.5,27.3
2015-11-04 01:00:00,0.0,1.96077,0.00065,407.544,0.078,0.1516,0.0013,140.001,45.000,31682.81380,1.96375,408.292,35.317,45.069,45.000,0.00,0.09,-272.74,-272.82,-7,524,-941,20.9,4.7,-20.8,21.0,4.8,-20.6,5.73,1.92,-11.5,27.2
2015-11-04 01:01:00,0.0,1.96006,0.00043,407.453,0.032,0.1511,0.0019,139.999,45.000,31682.34063,1.96299,408.195,35.332,45.069,45.000,0.00,0.09,-272.75,-272.80,-6,524,-941,20.9,4.7,-20.8,21.1,4.8,-20.5,5.73,1.79,-11.5,27.2
2015-11-04 01:02:00,0.0,1.96091,0.00092,407.501,0.078,0.1527,0.0016,140.000,45.000,31683.25751,1.96382,408.250,35.336,45.069,45.000,0.00,0.09,-272.75,-272.80,-7,524,-941,20.9,4.8,-20.7,21.1,4.8,-20.6,5.73,2.11,-11.5,27.2
2015-11-04 01:03:00,0.0,1.96038,0.00044,407.429,0.045,0.1528,0.0020,139.998,45.000,31683.14712,1.96336,408.183,35.319,45.069,45.000,0.00,0.09,-272.75,-272.81,-7,524,-941,20.9,4.8,-20.7,21.0,4.8,-20.5,5.73,1.97,-11.5,27.2
2015-11-04 01:04:00,0.0,1.95952,0.00052,407.373,0.037,0.1545,0.0020,140.000,45.000,31683.95970,1.96252,408.132,35.316,45.069,45.000,0.00,0.09,-272.75,-272.81,-6,524,-941,20.9,4.8,-20.6,21.1,4.9,-20.4,5.73,1.77,-11.5,27.2
2015-11-04 01:05:00,0.0,1.95804,0.00100,407.321,0.053,0.1548,0.0014,139.999,45.000,31684.89401,1.96113,408.084,35.317,45.069,45.000,0.00,0.09,-272.75,-272.80,-6,524,-941,20.9,4.8,-20.6,21.1,4.9,-20.3,5.73,2.09,-11.5,27.2
2015-11-04 01:06:00,0.0,1.95715,0.00030,407.253,0.035,0.1537,0.0013,140.001,45.000,31686.80763,1.96011,408.007,35.314,45.069,45.000,0.00,0.09,-272.75,-272.81,-7,524,-941,20.9,4.8,-20.7,21.1,4.8,-20.4,5.73,2.00,-11.5,27.2
2015-11-04 01:07:00,0.0,1.95705,0.00053,407.273,0.034,0.1553,0.0013,139.999,45.000,31684.82480,1.96009,408.037,35.313,45.069,45.000,0.00,0.09,-272.75,-272.81,-7,524,-941,20.9,4.8,-20.6,21.1,4.9,-20.4,5.73,1.76,-11.5,27.3
2015-11-04 01:08:00,0.0,1.95714,0.00053,407.262,0.047,0.1563,0.0016,140.000,45.000,31685.36851,1.96009,408.028,35.316,45.069,45.000,0.00,0.09,-272.75,-272.80,-6,524,-941,20.9,4.8,-20.5,21.1,4.9,-20.3,5.73,2.05,-11.5,27.2
2015-11-04 01:09:00,0.0,1.95793,0.00056,407.310,0.039,0.1468,0.0047,139.997,45.000,31684.54210,1.96080,408.032,35.313,45.069,45.000,0.00,0.09,-272.75,-272.81,-7,524,-941,20.9,4.6,-21.1,21.0,4.8,-20.6,5.73,2.05,-11.5,27.2
2015-11-04 01:10:00,0.0,1.95703,0.00089,407.329,0.044,0.1383,0.0028,139.997,45.000,31684.64317,1.95975,408.011,35.313,45.069,45.000,0.00,0.09,-272.75,-272.81,-8,524,-941,20.9,4.4,-21.7,21.1,4.5,-21.2,5.73,1.76,-11.5,27.2
2015-11-04 01:11:00,0.0,1.95515,0.00091,407.276,0.078,0.1330,0.0016,140.001,45.000,31686.12712,1.95772,407.929,35.313,45.069,45.000,0.00,0.09,-272.75,-272.81,-8,524,-941,20.9,4.2,-22.1,21.1,4.4,-21.6,5.73,2.01,-11.5,27.2
2015-11-04 01:12:00,0.0,1.95145,0.00149,407.001,0.117,0.1314,0.0015,140.001,45.000,31686.27612,1.95414,407.653,35.315,45.069,45.000,0.00,0.09,-272.75,-272.81,-6,524,-941,20.9,4.2,-22.2,21.1,4.3,-21.8,5.73,2.08,-11.5,27.2
2015-11-04 01:13:00,0.0,1.95302,0.00122,407.096,0.092,0.1308,0.0024,139.999,45.000,31687.00465,1.95539,407.731,35.321,45.069,45.000,0.00,0.09,-272.75,-272.81,-7,525,-941,20.9,4.2,-22.3,21.1,4.3,-21.9,5.73,1.77,-11.5,27.3
2015-11-04 01:14:00,0.0,1.95518,0.00058,407.278,0.036,0.1305,0.0019,139.998,45.000,31685.90756,1.95772,407.918,35.320,45.069,45.000,0.00,0.09,-272.75,-272.80,-8,525,-941,20.9,4.1,-22.3,21.1,4.2,-21.9,5.73,1.96,-11.5,27.3
2015-11-04 01:15:00,0.0,1.95181,0.00150,407.004,0.122,0.1322,0.0015,140.000,45.000,31685.01397,1.95446,407.657,35.316,45.069,45.000,0.00,0.09,-272.74,-272.80,-7,524,-941,20.9,4.2,-22.2,21.1,4.2,-21.9,5.73,2.11,-11.5,27.2
2015-11-04 01:16:00,0.0,1.95129,0.00062,406.960,0.033,0.1355,0.0019,140.001,45.000,31683.61203,1.95389,407.624,35.314,45.069,45.000,0.00,0.09,-272.75,-272.81,-6,524,-941,20.9,4.3,-22.0,21.0,4.3,-21.8,5.73,1.79,-11.5,27.2
2015-11-04 01:17:00,0.0,1.95278,0.00050,407.019,0.033,0.1379,0.0019,140.000,45.000,31682.03391,1.95539,407.695,35.314,45.069,45.000,0.00,0.09,-272.76,-272.80,-7,524,-941,20.9,4.4,-21.7,21.1,4.4,-21.5,5.73,1.92,-11.5,27.2
2015-11-04 01:18:00,0.0,1.95420,0.00046,407.096,0.033,0.1395,0.0021,139.997,45.000,31681.95887,1.95686,407.781,35.313,45.069,45.000,0.00,0.09,-272.75,-272.79,-7,524,-941,20.9,4.4,-21.6,21.0,4.5,-21.4,5.73,2.13,-11.5,27.2
2015-11-04 01:19:00,0.0,1.95216,0.00052,406.947,0.052,0.1423,0.0019,140.000,45.000,31684.31865,1.95497,407.647,35.305,45.069,45.000,0.00,0.09,-272.74,-272.80,-7,525,-941,20.9,4.5,-21.5,21.1,4.5,-21.2,5.73,1.82,-11.5,27.2
2015-11-04 01:20:00,0.0,1.95255,0.00078,406.946,0.055,0.1443,0.0019,139.999,45.000,31685.39662,1.95535,407.655,35.262,45.069,45.000,0.00,0.09,-272.75,-272.80,-6,524,-941,20.9,4.5,-21.3,21.1,4.6,-21.1,5.73,1.88,-11.5,27.2
2015-11-04 01:21:00,0.0,1.95235,0.00037,406.952,0.029,0.1393,0.0025,139.997,45.000,31683.99727,1.95500,407.635,35.251,45.069,45.000,0.00,0.09,-272.75,-272.80,-7,524,-941,20.9,4.4,-21.6,21.0,4.5,-21.2,5.73,2.14,-11.5,27.2
2015-11-04 01:22:00,0.0,1.95259,0.00028,406.957,0.030,0.1401,0.0018,139.996,45.000,31682.20717,1.95529,407.644,35.250,45.069,45.000,0.00,0.09,-272.74,-272.80,-8,524,-941,20.9,4.4,-21.6,21.0,4.5,-21.4,5.73,1.86,-11.5,27.2
2015-11-04 01:23:00,0.0,1.95285,0.00046,406.947,0.043,0.1430,0.0023,140.001,45.000,31684.59571,1.95556,407.648,35.250,45.069,45.000,0.00,0.09,-272.76,-272.81,-7,524,-941,20.9,4.5,-21.4,21.0,4.5,-21.2,5.73,1.84,-11.5,27.2
2015-11-04 01:24:00,0.0,1.95317,0.00044,406.984,0.032,0.1470,0.0022,139.998,44.999,31683.00339,1.95605,407.706,35.250,45.069,45.000,0.00,0.09,-272.76,-272.81,-7,524,-941,20.9,4.6,-21.2,21.1,4.6,-21.0,5.73,2.14,-11.5,27.2
2015-11-04 01:25:00,0.0,1.95286,0.00046,406.981,0.039,0.1464,0.0027,140.000,45.000,31683.96294,1.95566,407.699,35.249,45.069,45.000,0.00,0.09,-272.74,-272.81,-7,524,-941,20.9,4.6,-21.1,21.1,4.7,-20.9,5.73,1.91,-11.5,27.2
2015-11-04 01:26:00,0.0,1.95310,0.00034,407.022,0.034,0.1384,0.0024,139.999,44.999,31682.63396,1.95577,407.702,35.249,45.069,45.000,0.00,0.09,-272.75,-272.81,-7,524,-941,20.9,4.4,-21.7,21.1,4.5,-21.2,5.73,1.79,-11.5,27.2
2015-11-04 01:27:00,0.0,1.95349,0.00043,407.039,0.025,0.1369,0.0015,139.998,45.000,31682.00944,1.95609,407.710,35.252,45.069,45.000,0.00,0.09,-272.76,-272.81,-6,523,-941,20.9,4.3,-21.9,21.1,4.4,-21.5,5.73,2.11,-11.5,27.3
2015-11-04 01:28:00,0.0,1.95402,0.00035,407.046,0.021,0.1402,0.0026,139.999,45.000,31682.63895,1.95671,407.733,35.251,45.069,45.000,0.00,0.09,-272.75,-272.81,-6,525,-941,20.9,4.4,-21.6,21.1,4.4,-21.4,5.73,1.97,-11.5,27.2
2015-11-04 01:29:00,0.0,1.95350,0.00048,407.006,0.033,0.1419,0.0018,140.000,45.000,31683.72893,1.95625,407.702,35.253,45.069,45.000,0.00,0.09,-272.75,-272.81,-8,525,-941,20.9,4.5,-21.5,21.1,4.5,-21.2,5.73,1.77,-11.5,27.2
2015-11-04 01:30:00,0.0,1.95187,0.00093,406.931,0.067,0.1379,0.0016,140.001,45.000,31684.02391,1.95465,407.611,35.252,45.069,45.000,0.00,0.09,-272.75,-272.81,-7,523,-941,20.9,4.4,-21.7,21.1,4.5,-21.3,5.73,2.08,-11.5,27.2
2015-11-04 01:31:00,0.0,1.95138,0.00037,406.903,0.043,0.1371,0.0016,140.001,45.000,31683.89376,1.95398,407.573,35.252,45.069,45.000,0.00,0.09,-272.75,-272.81,-7,525,-941,20.9,4.3,-21.8,21.1,4.4,-21.5,5.73,2.02,-11.5,27.2
2015-11-04 01:32:00,0.0,1.95132,0.00031,406.907,0.027,0.1349,0.0021,139.998,45.000,31684.01853,1.95394,407.569,35.257,45.069,45.000,0.00,0.09,-272.74,-272.80,-6,525,-941,20.9,4.3,-22.0,21.1,4.4,-21.6,5.73,1.77,-11.5,27.2
2015-11-04 01:33:00,0.0,1.95129,0.00094,406.894,0.055,0.1352,0.0017,140.000,45.000,31682.58341,1.95383,407.557,35.254,45.069,45.000,0.00,0.09,-272.76,-272.81,-7,523,-941,20.9,4.3,-22.0,21.1,4.3,-21.7,5.73,2.02,-11.5,27.2
2015-11-04 01:34:00,0.0,1.95271,0.00049,407.005,0.039,0.1355,0.0015,140.000,45.000,31682.80246,1.95531,407.668,35.250,45.069,45.000,0.00,0.09,-272.75,-272.81,-8,523,-941,20.9,4.3,-22.0,21.1,4.4,-21.6,5.73,2.08,-11.5,27.2
2015-11-04 01:35:00,0.0,1.95399,0.00035,407.077,0.040,0.1348,0.0018,140.001,45.000,31682.35886,1.95658,407.737,35.250,45.069,45.000,0.00,0.09,-272.74,-272.80,-7,523,-941,20.9,4.3,-22.0,21.1,4.3,-21.6,5.73,1.77,-11.5,27.2
2015-11-04 01:36:00,0.0,1.95395,0.00038,407.100,0.037,0.1344,0.0013,139.998,45.000,31683.88695,1.95650,407.758,35.249,45.069,45.000,0.00,0.09,-272.75,-272.80,-7,523,-941,20.9,4.3,-22.0,21.1,4.3,-21.7,5.73,1.97,-11.5,27.2
2015-11-04 01:37:00,0.0,1.95395,0.00048,407.105,0.044,0.1345,0.0017,140.002,45.000,31683.25353,1.95660,407.766,35.250,45.069,45.000,0.00,0.09,-272.75,-272.81,-7,525,-941,20.9,4.2,-22.1,21.1,4.3,-21.7,5.73,2.11,-11.5,27.2
2015-11-04 01:38:00,0.0,1.95289,0.00036,407.012,0.031,0.1345,0.0013,139.998,45.000,31682.98520,1.95549,407.673,35.251,45.069,45.000,0.00,0.09,-272.74,-272.81,-7,524,-942,20.9,4.3,-22.0,21.1,4.3,-21.7,5.73,1.80,-11.5,27.2
2015-11-04 01:39:00,0.0,1.95213,0.00049,406.969,0.050,0.1355,0.0017,139.997,45.000,31682.02384,1.95477,407.636,35.250,45.069,45.000,0.00,0.09,-272.75,-272.80,-6,524,-941,20.9,4.3,-21.9,21.1,4.3,-21.7,5.73,1.91,-11.5,27.2
2015-11-04 01:40:00,0.0,1.95039,0.00078,406.833,0.036,0.1390,0.0025,139.997,45.000,31681.87002,1.95307,407.515,35.251,45.069,45.000,0.00,0.09,-272.75,-272.81,-7,524,-941,20.9,4.4,-21.6,21.1,4.4,-21.5,5.73,2.13,-11.5,27.2
2015-11-04 01:41:00,0.0,1.95081,0.00056,406.852,0.036,0.1435,0.0025,139.999,45.000,31682.65280,1.95359,407.555,35.250,45.069,45.000,0.00,0.09,-272.74,-272.81,-8,524,-942,20.9,4.5,-21.3,21.1,4.5,-21.2,5.73,1.84,-11.6,27.2
2015-11-04 01:42:00,0.0,1.94999,0.00058,406.794,0.051,0.1466,0.0017,139.999,45.000,31683.45997,1.95286,407.516,35.249,45.069,45.000,0.00,0.09,-272.75,-272.80,-7,524,-941,20.9,4.6,-21.1,21.1,4.6,-21.0,5.73,1.85,-11.5,27.3
2015-11-04 01:43:00,0.0,1.94972,0.00035,406.784,0.042,0.1495,0.0019,139.995,45.000,31683.21989,1.95256,407.516,35.251,45.069,45.000,0.00,0.09,-272.76,-272.81,-6,524,-941,20.9,4.7,-20.9,21.1,4.7,-20.7,5.73,2.14,-11.5,27.3
2015-11-04 01:44:00,0.0,1.94906,0.00047,406.793,0.035,0.1520,0.0017,139.998,45.000,31683.61563,1.95202,407.539,35.255,45.069,45.000,0.00,0.09,-272.75,-272.82,-7,524,-941,20.9,4.8,-20.7,21.1,4.8,-20.6,5.73,1.90,-11.5,27.2
2015-11-04 01:45:00,0.0,1.94851,0.00063,406.763,0.036,0.1542,0.0015,140.000,45.000,31684.69677,1.95150,407.520,35.259,45.069,45.000,0.00,0.09,-272.75,-272.80,-7,524,-941,20.9,4.8,-20.6,21.1,4.8,-20.4,5.73,1.81,-11.5,27.2